Terminal Aerodrome Forecast
Issued by NWS

Home | Current Version | Previous Version | Graphics & Text | Print | Product List | Glossary On
Versions: 1 2 3 4 5 6 7 8 9 10 11 12 13 14 15 16 17 18 19 20 21 22 23 24
000
FTUS45 KGGW 262320
TAFGDV
TAF
KGDV 262320Z 2700/2724 VRB05KT P6SM BKN090
     FM270600 06005KT P6SM FEW090
     FM271800 14008KT P6SM BKN100=

USA.gov is the U.S. government's official web portal to all federal, state and local government web resources and services.